Dewpoint
30 25 25 24 25 24 22 18 24 25 25 30 30 29 28 29 31 32 33 31 34 30 34 34 38 40 42 42 44 47 48 49 51 53 53 55 56 57 60 60 61 62 64 67 68 68 70 69 71 71 71 71 72 72 73 73 73 74 73 73 72 73 73 73 72 72 73 73 73 73 73 74 74 74 73 75 74 74 74 73 75 76 76 75 74 74
23 28 25 25 25 25 22 19 17 19 27 28 29 27 25 25 29 32 33 33 32 30 37 40 38 40 41 41 41 43 47 48 50 52 53 55 56 57 60 62 63 63 66 67 67 69 70 69 71 70 71 72 71 72 72 72 73 73 72 72 72 74 72 72 73 74 73 74 74 73 73 74 72 73 73 73 73 73 74 74 74 75 75 75 74 74
25 24 24 25 25 23 21 20 16 18 19 27 24 23 23 25 27 31 32 32 31 31 42 38 39 40 40 41 41 42 44 47 50 50 53 55 55 57 59 61 63 64 66 66 67 69 68 69 69 70 71 71 71 71 71 72 72 72 72 72 73 73 73 73 74 74 74 74 75 72 72 72 71 71 72 71 72 74 73 73 74 75 74 75 74 74
23 22 23 24 24 21 18 17 14 15 17 18 21 24 22 25 23 28 29 31 31 30 38 40 37 40 40 42 42 43 43 46 49 51 54 55 55 57 56 59 63 64 65 65 66 67 68 67 68 68 69 70 71 71 71 72 72 72 73 73 73 73 73 73 74 74 75 75 75 74 73 72 70 72 73 70 71 73 71 72 74 74 74 74 74 74
21 23 23 22 22 21 17 14 13 15 17 18 20 17 17 21 21 25 28 30 29 28 35 38 39 42 41 41 42 43 44 44 46 51 54 55 55 56 57 60 62 64 64 65 66 66 67 67 67 68 69 70 70 71 71 72 72 72 73 73 72 73 74 74 75 75 75 75 74 73 71 73 72 71 70 67 65 67 68 67 71 72 73 72 70 69
18 21 22 21 20 19 16 13 13 14 18 16 17 17 17 15 20 26 29 29 27 27 26 34 35 40 42 42 42 42 43 43 45 48 53 54 55 56 57 59 61 64 65 65 65 65 66 67 68 68 69 69 70 70 71 72 72 72 72 73 72 74 74 74 75 74 74 74 71 71 68 68 68 68 68 62 62 65 64 64 64 68 68 69 68 68
16 20 21 20 18 17 14 13 14 15 15 15 21 20 16 16 14 28 27 26 27 27 28 33 33 41 47 42 43 50 46 43 46 46 53 54 55 55 57 59 61 64 64 64 64 65 66 67 68 68 68 69 70 70 71 72 71 72 73 73 73 74 74 74 74 73 75 71 72 69 68 70 69 69 67 67 68 69 70 68 64 68 68 69 68 69
15 19 19 20 18 16 13 12 13 13 13 16 15 18 19 14 14 20 26 25 29 28 26 32 36 42 39 42 44 50 49 51 49 46 50 52 54 54 56 58 61 63 62 63 64 64 65 66 67 67 68 68 69 70 70 71 72 72 72 73 74 74 74 73 73 72 71 66 71 65 67 68 67 69 67 65 67 68 72 69 67 70 69 68 68 67
15 17 19 18 18 17 15 13 15 17 11 16 13 18 14 14 14 15 25 25 28 25 26 25 37 42 40 41 47 48 46 48 48 48 47 51 53 53 54 57 59 62 61 62 64 63 62 65 66 66 67 67 68 70 70 71 71 73 72 74 73 74 73 71 69 67 70 67 70 70 69 68 71 69 68 69 67 68 69 67 67 67 69 68 68 69
15 15 18 18 17 16 23 16 13 22 11 12 12 13 14 13 12 15 17 20 35 32 34 29 28 29 41 47 46 47 45 45 46 47 46 50 50 51 52 56 56 59 60 61 62 62 62 64 65 65 67 67 67 69 70 71 72 72 72 73 73 72 69 67 67 67 68 69 68 65 67 67 67 68 68 63 66 71 68 64 65 71 70 68 67 67
14 24 27 17 16 17 16 16 15 13 15 19 12 14 15 17 22 20 27 31 34 25 32 31 22 23 34 45 44 45 44 45 45 47 48 49 49 50 50 54 55 58 59 59 60 61 62 63 64 65 66 65 67 68 70 71 72 71 72 72 70 68 67 68 67 67 65 64 68 64 65 67 66 67 67 65 65 69 65 63 66 67 66 64 64 68
12 13 16 18 20 15 14 14 15 14 14 13 12 12 21 21 27 34 35 31 19 23 32 23 20 26 24 43 46 45 45 45 45 45 46 48 48 50 49 51 54 58 58 57 58 59 61 63 64 65 65 64 67 69 70 71 71 71 71 70 68 68 67 67 68 66 65 65 67 66 66 65 63 64 66 65 65 69 68 69 67 68 65 63 67 67
11 11 18 14 27 13 11 11 12 13 14 11 16 21 17 30 29 22 23 21 23 21 31 21 21 21 27 39 47 46 46 45 46 45 45 46 48 50 50 50 53 58 56 56 57 59 60 62 63 64 65 64 69 69 70 71 71 71 70 69 67 67 67 67 67 67 66 65 65 65 62 66 64 66 67 67 66 69 67 67 66 65 65 67 65 66
12 13 11 12 15 16 14 11 17 12 15 11 11 28 25 26 25 20 25 25 29 32 23 20 23 23 33 36 45 46 46 46 46 45 45 46 47 49 50 50 53 56 55 55 57 58 60 61 63 63 64 64 68 69 70 70 70 70 69 68 66 67 66 68 67 66 66 66 63 65 65 65 64 64 67 67 65 68 67 67 64 63 64 65 64 66
12 11 12 9 10 13 15 13 11 12 14 13 10 11 34 29 29 25 26 24 22 22 28 22 23 27 20 34 43 46 47 47 46 45 46 47 48 48 49 50 53 54 54 54 55 59 59 60 62 63 64 64 68 69 70 70 70 70 68 67 67 67 67 67 66 67 65 66 65 65 65 66 64 67 62 65 68 65 67 66 65 67 65 65 66 66
11 14 15 10 21 13 13 14 12 10 13 9 11 16 21 27 37 22 27 23 26 27 23 28 24 29 25 37 43 37 44 46 46 42 47 48 47 48 49 50 51 54 53 54 55 59 60 60 61 62 64 64 68 68 69 70 70 69 68 67 67 66 67 66 66 67 64 65 65 64 65 65 66 69 68 68 68 66 65 66 64 65 66 65 65 67
14 12 11 10 16 13 13 15 12 12 16 19 17 17 19 19 22 30 36 27 27 28 25 37 38 40 36 34 34 41 44 44 43 44 46 47 46 49 50 51 49 53 53 53 55 59 60 60 60 62 63 64 67 68 69 70 70 68 68 67 67 66 67 66 66 66 65 65 65 63 64 65 67 65 64 64 65 64 64 66 66 64 63 67 66 65
15 15 14 13 17 15 13 12 11 11 15 18 17 18 20 15 18 34 26 32 24 22 26 23 23 25 27 28 34 35 41 41 42 37 43 46 46 47 48 50 50 51 54 54 55 59 61 60 60 62 63 64 66 67 68 70 69 68 67 67 66 66 66 66 66 63 65 65 64 64 64 65 65 63 64 64 65 65 66 65 64 64 64 66 67 66
10 17 16 16 17 16 12 12 12 19 15 14 15 16 13 18 15 27 31 24 23 23 24 28 22 26 28 34 31 35 36 37 36 36 46 47 48 47 49 50 50 51 55 55 55 60 61 60 60 62 63 64 65 67 68 70 69 68 67 67 66 66 66 66 66 62 65 65 65 65 64 64 65 64 65 64 66 65 62 62 64 64 64 64 63 64
13 11 24 16 16 14 13 14 16 16 16 16 17 14 14 19 28 30 26 33 30 27 27 24 24 25 43 33 35 29 33 35 35 34 41 45 47 47 51 51 50 54 55 55 56 59 61 60 60 61 63 64 65 67 68 69 68 67 67 67 66 66 66 65 65 64 64 64 65 66 66 65 64 64 64 66 65 63 62 63 62 62 63 63 66 66
13 20 24 16 16 13 15 15 14 16 17 13 13 16 14 17 25 21 31 21 28 28 25 27 28 33 37 45 35 35 38 41 40 44 45 42 47 48 50 51 51 55 55 55 56 58 61 60 59 61 63 64 65 67 67 68 67 66 66 66 66 66 65 65 64 65 63 65 65 66 65 65 64 64 64 65 65 63 62 61 63 62 62 63 63 64
16 23 20 20 16 14 15 15 15 14 14 13 13 14 16 16 22 13 24 20 26 23 24 22 28 36 41 41 39 37 39 41 43 45 44 35 38 50 51 53 55 57 57 56 57 59 60 61 60 62 64 64 65 66 66 67 66 66 65 65 66 65 64 64 63 66 64 65 65 64 64 64 63 64 64 64 64 64 63 62 62 63 64 63 63 64
13 38 23 17 15 13 14 14 15 14 13 13 12 12 13 15 24 25 22 25 26 28 24 32 29 32 39 49 43 37 36 38 43 41 44 47 39 49 52 52 55 57 58 57 55 58 60 61 62 62 64 64 65 66 66 66 65 65 64 64 65 65 63 63 64 65 65 64 65 64 63 64 63 63 64 63 64 62 63 62 62 63 63 62 62 64
50 25 34 31 27 16 15 14 15 15 12 11 12 13 13 12 14 22 33 35 24 30 23 27 33 33 47 48 40 41 39 34 37 38 39 46 45 47 52 52 55 58 58 57 55 55 58 61 62 63 64 65 65 66 65 66 65 64 64 63 63 64 63 63 65 65 65 64 65 64 64 64 64 63 63 63 63 63 62 62 61 62 62 62 62 62
14 28 29 32 21 23 18 27 14 14 13 13 18 12 12 13 14 16 25 40 28 32 31 26 30 34 45 49 45 38 40 37 35 35 40 43 46 52 55 55 56 59 58 57 56 56 57 59 62 63 64 65 65 65 65 65 64 64 63 62 61 62 62 62 64 64 64 64 64 64 64 64 64 64 63 63 63 62 61 60 58 63 62 62 61 61
16 39 25 23 28 21 20 20 25 16 15 15 15 14 19 12 14 19 15 34 21 37 33 33 38 37 41 47 38 42 43 43 40 40 43 47 46 45 51 61 59 60 60 59 58 58 57 58 63 63 64 65 66 66 65 64 64 64 63 62 61 61 61 62 64 63 62 62 63 63 63 63 63 63 62 62 61 61 60 59 61 59 61 62 62 63
30 40 33 31 29 28 26 36 34 31 19 15 13 14 14 14 13 21 28 29 24 33 29 34 36 36 41 41 34 40 33 38 45 45 46 43 43 44 49 60 61 60 60 59 59 58 58 59 62 64 64 64 65 66 65 64 64 64 63 61 60 61 61 62 63 63 62 61 61 62 61 62 62 62 62 62 62 61 61 61 57 57 59 61 60 60
38 30 32 44 37 41 42 45 24 21 19 16 14 13 14 14 16 17 22 21 38 30 23 36 37 38 35 37 38 41 36 39 45 47 47 47 50 52 50 57 67 62 62 60 63 61 59 59 62 64 65 65 64 65 64 63 63 64 62 59 59 60 61 62 63 63 62 62 62 62 61 62 62 62 62 63 63 63 62 61 62 62 62 63 61 60
43 31 30 29 34 34 26 16 19 19 16 18 18 14 13 14 14 15 38 40 42 28 23 37 40 40 35 33 38 42 46 42 37 45 47 50 53 53 54 51 61 63 63 63 63 66 61 60 62 64 65 66 65 65 64 63 63 64 62 59 59 60 61 62 63 62 62 62 63 63 62 62 62 63 63 64 64 63 62 61 62 62 62 61 62 63
35 32 33 20 28 19 17 13 18 13 17 17 16 16 14 12 13 13 15 19 34 43 38 41 43 40 39 38 36 36 45 44 47 45 43 44 49 53 56 54 52 57 63 64 64 65 64 62 62 64 65 66 65 65 64 63 63 63 62 60 62 61 61 63 63 63 63 62 64 64 63 63 64 63 63 63 63 63 62 61 62 62 63 63 63 62
21 39 29 24 30 36 27 17 13 12 14 13 17 17 17 18 19 18 15 15 25 28 42 41 43 39 41 38 37 48 48 45 48 43 45 52 51 50 49 48 50 52 57 64 67 65 65 65 64 64 65 66 65 65 64 64 64 63 62 61 61 61 60 61 62 62 62 61 63 64 64 64 64 64 64 63 63 63 62 62 63 63 63 63 63 63
24 36 30 36 27 30 26 20 15 13 12 12 14 16 17 17 20 20 23 33 32 32 31 44 40 40 41 44 45 47 46 45 46 44 48 50 47 53 55 55 57 57 57 57 66 66 65 65 66 66 65 65 66 66 65 65 65 64 64 64 65 64 62 60 61 61 61 61 64 65 63 63 64 64 63 64 63 63 63 63 63 63 63 63 64 64
28 36 31 33 26 31 29 21 18 12 12 12 16 16 18 19 32 23 26 27 29 26 31 36 40 45 47 46 41 46 44 44 48 50 53 46 49 52 51 52 54 54 55 58 65 65 65 65 65 67 66 66 66 66 65 65 64 64 64 64 65 66 66 65 64 63 62 64 65 64 63 63 63 63 63 63 63 63 64 63 63 63 63 63 64 64
37 38 33 35 27 31 25 20 21 24 25 28 40 34 33 25 26 26 28 32 36 44 45 40 38 44 39 40 43 43 41 40 42 47 48 49 54 51 51 51 53 52 52 55 56 65 66 65 65 65 67 67 66 66 67 65 64 64 64 64 64 64 64 65 65 65 66 66 66 65 63 63 63 63 63 63 64 64 63 63 63 62 63 63 64 63
41 41 36 39 34 30 37 38 30 22 29 42 39 30 30 30 30 31 30 43 36 42 42 41 43 42 44 44 46 47 47 48 49 50 48 51 54 56 57 56 58 58 58 55 53 52 63 66 65 65 66 68 68 65 64 64 64 63 63 63 63 64 64 64 64 66 66 65 64 65 64 64 63 63 63 64 63 64 63 63 63 63 63 63 62 62
39 33 40 36 37 37 32 31 24 27 42 45 31 30 36 33 34 37 40 42 40 38 46 44 43 42 46 48 47 45 43 45 53 55 51 47 43 44 43 48 51 53 50 50 50 51 53 66 67 67 68 68 64 63 63 62 62 61 64 64 64 65 64 64 64 65 66 65 65 65 64 64 63 63 63 63 63 63 63 63 63 63 63 64 64 64
39 47 38 36 40 30 33 32 30 46 34 40 41 41 33 36 38 39 34 41 46 43 44 43 44 47 48 47 50 46 45 44 44 44 43 40 50 48 41 43 43 46 51 58 55 59 65 69 69 69 65 63 63 63 63 62 64 64 63 63 63 64 64 63 63 62 62 64 65 65 65 64 63 63 63 62 62 62 62 63 63 63 65 64 63 62
41 38 48 32 40 43 34 32 30 28 27 35 43 46 36 33 33 42 40 41 47 45 47 50 45 42 44 41 46 47 48 43 40 41 47 47 43 46 49 49 47 50 49 64 65 65 68 73 69 65 63 62 63 63 62 62 62 62 63 63 63 62 63 62 61 61 62 63 65 65 65 64 63 63 62 62 61 62 62 63 64 64 66 63 62 61
38 41 40 34 45 36 36 31 31 30 35 42 46 36 40 38 36 47 38 35 44 46 46 42 44 43 43 43 46 50 45 42 42 43 44 39 39 36 45 48 49 57 60 61 62 65 64 64 64 64 64 63 62 63 63 63 64 63 62 62 62 62 61 61 60 60 61 62 64 65 65 64 63 62 62 61 61 61 61 61 63 64 65 62 62 61
30 37 39 37 41 38 37 33 30 33 35 47 42 41 33 35 40 41 30 37 43 48 49 45 45 49 44 42 44 45 42 42 41 46 44 43 44 44 56 55 59 61 61 61 64 63 63 65 65 64 64 62 63 63 62 63 63 64 63 63 62 62 61 61 60 60 61 63 64 65 65 64 63 62 61 61 61 61 61 62 63 62 63 62 61 60
43 44 41 39 32 35 36 32 33 36 46 46 33 33 33 31 39 32 31 41 47 51 45 43 42 43 41 39 46 47 50 50 49 43 42 47 50 49 55 56 57 54 52 62 65 65 63 63 64 64 64 63 63 63 63 63 63 62 62 61 61 61 61 61 60 62 63 64 64 64 64 64 63 62 61 62 62 61 63 62 61 62 61 60 60 60
39 44 46 45 41 37 34 30 32 36 55 43 37 41 41 36 34 34 48 57 52 43 49 44 44 46 50 50 49 48 47 46 47 47 48 48 55 57 57 61 60 57 66 66 65 63 62 62 63 63 63 63 62 63 62 62 61 61 60 60 59 60 61 64 64 64 63 63 63 63 64 63 63 62 62 63 63 62 62 64 63 62 62 62 61 61
39 34 36 38 45 44 40 36 34 28 48 47 39 48 51 49 50 55 55 49 49 47 47 49 49 50 50 49 50 51 49 48 48 51 52 50 54 61 63 64 65 66 64 63 63 63 62 62 62 62 62 61 61 62 62 61 60 61 62 61 62 63 65 63 63 64 63 63 63 63 63 63 64 62 63 64 63 63 63 62 62 62 61 60 60 61
50 38 33 41 46 44 40 38 38 45 50 44 47 48 52 52 53 55 57 50 50 49 49 49 51 52 51 51 51 50 51 49 51 50 50 50 52 59 62 64 65 64 63 63 63 62 62 62 62 61 60 60 60 61 60 60 61 61 64 65 67 66 65 64 64 64 65 67 67 66 65 65 65 65 64 64 64 63 62 62 62 62 60 59 60 60
49 48 50 41 47 46 47 48 50 51 50 44 47 50 49 55 59 56 49 50 49 48 50 47 50 50 52 50 51 51 50 49 51 48 50 57 62 61 61 61 63 65 64 64 63 64 62 60 60 59 59 60 59 60 60 61 65 66 65 67 67 65 65 65 64 63 63 63 63 63 63 63 63 63 63 63 63 62 61 61 61 60 60 59 59 60
53 51 55 51 51 51 51 53 49 50 47 45 42 44 45 45 47 48 48 48 50 49 49 50 52 49 51 50 49 51 51 53 50 48 54 63 63 63 62 60 60 61 64 65 64 63 62 61 61 59 59 59 61 63 64 65 67 66 67 68 67 66 65 65 65 65 64 62 61 60 60 61 62 63 63 62 62 62 61 62 63 62 61 61 61 60
42 43 46 54 54 45 43 54 50 47 51 44 44 43 42 42 43 48 51 51 48 47 48 49 50 50 49 53 57 57 57 56 60 63 64 64 64 63 64 64 64 62 60 61 63 64 64 63 62 63 64 64 62 61 63 65 67 67 68 68 68 67 65 65 65 65 64 63 63 61 59 60 62 64 64 60 60 61 60 60 57 57 60 60 60 60
47 49 45 47 46 47 50 50 48 46 45 45 45 45 45 46 44 45 49 49 48 48 48 49 49 50 51 55 59 58 59 61 61 63 64 63 63 63 64 64 64 64 63 60 61 63 63 64 64 63 61 61 63 62 62 60 61 62 65 67 66 66 66 65 65 65 63 63 63 62 62 60 64 63 61 60 60 60 60 60 59 59 57 56 57 57
52 56 51 49 48 49 49 49 50 48 48 46 44 47 49 49 48 47 46 45 46 46 47 48 49 50 52 56 61 61 61 62 63 62 62 63 63 63 62 63 63 63 63 63 63 64 63 64 64 64 64 64 64 63 63 62 61 58 63 64 65 65 65 64 65 64 64 63 61 61 63 62 63 60 59 57 52 50 50 51 56 54 52 52 52 54
41 47 48 46 46 45 48 53 54 49 47 49 44 45 49 48 49 47 46 45 46 47 46 43 46 50 51 57 59 61 62 62 62 62 61 63 63 62 62 63 63 63 63 63 62 62 63 64 64 65 65 65 65 63 61 59 60 60 63 63 65 66 65 65 64 63 62 62 61 61 61 58 55 56 59 56 53 51 50 49 43 47 53 51 49 47
52 54 51 48 43 44 47 51 56 52 56 55 50 46 52 49 52 50 47 45 44 45 44 43 44 47 50 50 61 63 62 61 59 63 63 63 63 63 63 63 63 63 63 62 62 62 61 63 65 64 62 62 62 61 60 60 62 63 64 65 65 66 66 65 63 62 61 60 59 59 59 56 56 59 59 57 54 53 52 50 49 42 41 46 46 43